EA4LT-13 Weather Reports


Display with metric or nautical units.
time (UTC)temp
F
wind
direction
speed
MPH
gust
MPH
rain 1hr
in
rain 24hr
in
rain mn
in
humidity
%
barometer
mb
20260903143238 103 135 1.0 3.0 0.00 0.00 0.00 20 1019.9
20260903141738 102 360 0.0 10.0 0.00 0.00 0.00 21 1019.9
20260903140237 101 202 2.0 4.0 0.00 0.00 0.00 21 1019.9
20260903134452 102 180 3.0 4.0 0.00 0.00 0.00 22 1020.0
20260903132951 99 270 0.0 8.0 0.00 0.00 0.00 23 1020.3
20260903131452 99 90 2.0 4.0 0.00 0.00 0.00 23 1020.3
20260903125953 99 135 1.0 6.0 0.00 0.00 0.00 22 1020.3
20260903124451 99 338 2.0 8.0 0.00 0.00 0.00 23 1020.3
20260903122951 99 22 1.0 6.0 0.00 0.00 0.00 23 1020.4
20260903121453 100 135 0.0 6.0 0.00 0.00 0.00 23 1020.6
20260903115951 98 135 2.0 6.0 0.00 0.00 0.00 24 1020.6
20260903114450 97 292 3.0 4.0 0.00 0.00 0.00 24 1020.7
20260903112951 96 248 0.0 6.0 0.00 0.00 0.00 24 1020.8
20260903111452 96 180 3.0 6.0 0.00 0.00 0.00 26 1020.9
20260903105951 95 90 0.0 9.0 0.00 0.00 0.00 25 1021.0
20260903104452 95 90 5.0 8.0 0.00 0.00 0.00 25 1020.9
20260903102952 94 315 1.0 4.0 0.00 0.00 0.00 26 1020.9
20260903101450 94 68 1.0 4.0 0.00 0.00 0.00 26 1020.9
20260903095950 95 180 0.0 4.0 0.00 0.00 0.00 26 1020.9
20260903094450 93 45 0.0 8.0 0.00 0.00 0.00 29 1020.8
20260903092950 92 22 1.0 3.0 0.00 0.00 0.00 29 1020.6
20260903091451 89 315 0.0 4.0 0.00 0.00 0.00 31 1020.6
20260903085950 88 315 0.0 3.0 0.00 0.00 0.00 32 1020.5
20260903084450 86 292 1.0 3.0 0.00 0.00 0.00 33 1020.4
20260903082951 85 315 1.0 3.0 0.00 0.00 0.00 34 1020.5
20260903081450 83 292 2.0 3.0 0.00 0.00 0.00 36 1020.2
20260903075950 82 315 2.0 3.0 0.00 0.00 0.00 36 1020.5
20260903074450 81 315 2.0 3.0 0.00 0.00 0.00 37 1020.4
20260903072951 79 315 2.0 3.0 0.00 0.00 0.00 38 1020.6
20260903071449 78 315 3.0 3.0 0.00 0.00 0.00 38 1020.2
20260903065950 77 315 1.0 3.0 0.00 0.00 0.00 38 1020.1
20260903064450 77 315 2.0 3.0 0.00 0.00 0.00 39 1020.1
20260903062950 75 315 1.0 1.0 0.00 0.00 0.00 40 1019.8
20260903061451 75 315 0.0 1.0 0.00 0.00 0.00 40 1019.7
20260903055949 75 315 0.0 2.0 0.00 0.00 0.00 41 1019.6
20260903054449 75 315 0.0 1.0 0.00 0.00 0.00 41 1019.3
20260903052950 75 315 1.0 1.0 0.00 0.00 0.00 41 1019.4
20260903051449 74 315 1.0 1.0 0.00 0.00 0.00 43 1019.1
20260903045950 75 315 0.0 2.0 0.00 0.00 0.00 41 1019.0
20260903044450 75 315 0.0 2.0 0.00 0.00 0.00 40 1018.8
20260903042949 76 315 0.0 2.0 0.00 0.00 0.00 40 1018.9
20260903041450 75 315 0.0 1.0 0.00 0.00 0.00 40 1019.1
20260903035949 77 315 1.0 2.0 0.00 0.00 0.00 39 1018.7
20260903034450 76 315 1.0 2.0 0.00 0.00 0.00 39 1018.7
20260903032949 77 315 1.0 2.0 0.00 0.00 0.00 38 1018.8
20260903031448 77 315 0.0 1.0 0.00 0.00 0.00 37 1019.0
20260903025949 77 315 0.0 1.0 0.00 0.00 0.00 38 1019.0
20260903024450 76 315 1.0 1.0 0.00 0.00 0.00 40 1018.9
20260903022949 77 315 0.0 2.0 0.00 0.00 0.00 39 1018.9
20260903021449 78 315 0.0 0.0 0.00 0.00 0.00 38 1019.0
20260903015949 77 315 0.0 0.0 0.00 0.00 0.00 38 1019.1
20260903014450 78 315 0.0 1.0 0.00 0.00 0.00 37 1019.1
20260903012949 77 315 1.0 2.0 0.00 0.00 0.00 38 1019.0
20260903011448 79 315 0.0 2.0 0.00 0.00 0.00 36 1019.1
20260903005949 79 315 0.0 2.0 0.00 0.00 0.00 36 1019.4
20260903004449 79 315 0.0 1.0 0.00 0.00 0.00 36 1019.4
20260903002949 80 315 0.0 3.0 0.00 0.00 0.00 35 1019.5
20260903001448 79 292 1.0 3.0 0.00 0.00 0.00 36 1019.3
20260902235948 79 292 0.0 2.0 0.00 0.00 0.00 36 1019.3
20260902234447 79 315 2.0 2.0 0.00 0.00 0.00 36 1019.4
20260902232949 79 315 2.0 3.0 0.00 0.00 0.00 37 1019.3
20260902231447 79 315 3.0 3.0 0.00 0.00 0.00 36 1019.6
20260902225949 79 315 3.0 4.0 0.00 0.00 0.00 36 1019.6
20260902224449 79 315 2.0 4.0 0.00 0.00 0.00 37 1019.4
20260902222949 79 315 2.0 4.0 0.00 0.00 0.00 36 1018.9
20260902221448 80 315 3.0 4.0 0.00 0.00 0.00 36 1019.2
20260902215947 80 315 2.0 3.0 0.00 0.00 0.00 36 1019.2
20260902214447 80 292 2.0 3.0 0.00 0.00 0.00 37 1019.1
20260902212947 80 315 2.0 3.0 0.00 0.00 0.00 36 1019.2
20260902211448 81 315 2.0 3.0 0.00 0.00 0.00 35 1019.4
20260902205947 82 315 2.0 3.0 0.00 0.00 0.00 35 1019.3
20260902204447 82 315 2.0 3.0 0.00 0.00 0.00 34 1019.2
20260902202947 83 315 2.0 4.0 0.00 0.00 0.00 34 1019.0
20260902201447 84 315 2.0 3.0 0.00 0.00 0.00 35 1018.7
20260902195948 84 315 2.0 4.0 0.00 0.00 0.00 36 1018.8
20260902194446 85 292 1.0 2.0 0.00 0.00 0.00 35 1018.6
20260902192948 84 158 0.0 1.0 0.00 0.00 0.00 34 1018.4
20260902191448 84 158 0.0 1.0 0.00 0.00 0.00 33 1018.3
20260902185946 86 158 0.0 1.0 0.00 0.00 0.00 30 1018.2
20260902184446 89 158 0.0 1.0 0.00 0.00 0.00 29 1018.2
20260902182947 91 158 0.0 1.0 0.00 0.00 0.00 27 1018.4
20260902181447 92 158 0.0 2.0 0.00 0.00 0.00 26 1018.1
20260902175946 93 158 0.0 2.0 0.00 0.00 0.00 26 1018.0
20260902174447 93 202 0.0 2.0 0.00 0.00 0.00 25 1018.1
20260902172946 93 112 1.0 3.0 0.00 0.00 0.00 24 1017.9
20260902171445 93 135 1.0 3.0 0.00 0.00 0.00 24 1018.1
20260902165947 94 202 3.0 3.0 0.00 0.00 0.00 24 1018.1
20260902164446 94 90 3.0 6.0 0.00 0.00 0.00 24 1018.2
20260902162945 95 202 1.0 6.0 0.00 0.00 0.00 22 1018.4
20260902161446 95 202 1.0 6.0 0.00 0.00 0.00 25 1018.2
20260902155946 93 292 3.0 9.0 0.00 0.00 0.00 27 1018.5
20260902154446 93 292 4.0 6.0 0.00 0.00 0.00 26 1018.2
20260902152945 93 270 0.0 8.0 0.00 0.00 0.00 29 1018.6
20260902151446 94 225 2.0 8.0 0.00 0.00 0.00 28 1018.4
20260902145945 94 248 0.0 8.0 0.00 0.00 0.00 28 1018.5
20260902144445 93 292 3.0 6.0 0.00 0.00 0.00 30 1018.5